Skip Page Navigation
NASA JPL Caltech
NASA Logo - Jet Propulsion Laboratory + View the NASA Portal
+ Center for Near-Earth Object Studies
JPL Home Earth Solar System Stars & Galaxies Technology
JPL Solar System Dynamics
BODIES ORBITS EPHEMERIDES TOOLS PHYSICAL DATA DISCOVERY FAQ SITE MAP
JPL Small-Body Database Browser
Search: [ help ]  
187567 (2006 VE94)
Classification: Main-belt Asteroid          SPK-ID: 2187567
Ephemeris | Orbit Diagram | Orbital Elements | Mission Design | Physical Parameters | Discovery Circumstances | Close-Approach Data ]

[ show orbit diagram ]
Orbital Elements at Epoch 2459200.5 (2020-Dec-17.0) TDB
Reference: JPL 20 (heliocentric ecliptic J2000)
 Element Value Uncertainty (1-sigma)   Units 
e .2806535667170276 3.5464e-08  
a 2.694370127944241 1.1263e-08 au
q 1.938185541480876 9.8365e-08 au
i 4.061748718886188 4.2791e-06 deg
node 253.2632534462172 6.429e-05 deg
peri 185.8578365357153 6.4951e-05 deg
M 59.25135982493502 8.818e-06 deg
tp 2458934.623391482802
(2020-Mar-26.12339148)
3.8736e-05 TDB
period 1615.415736431943
4.42
1.0129e-05
2.773e-08
d
yr
n .2228528495055717 1.3973e-09 deg/d
Q 3.450554714407606 1.4424e-08 au
  Orbit Determination Parameters
   # obs. used (total)      599  
   data-arc span      7144 days (19.56 yr)  
   first obs. used      2001-08-23  
   last obs. used      2021-03-15  
   planetary ephem.      DE441  
   SB-pert. ephem.      SB441-N16  
   condition code      0  
   norm. resid. RMS      .51621  
   source      ORB  
   producer      Otto Matic  
   solution date      2021-Apr-13 21:55:57  

Additional Information
 Earth MOID = .953433 au 
 Jupiter MOID = 1.8255 au 
 T_jup = 3.309 
[ show covariance matrix ]

Ephemeris | Orbit Diagram | Orbital Elements | Mission Design | Physical Parameters | Discovery Circumstances | Close-Approach Data ]

Physical Parameter Table
Parameter Symbol Value Units Sigma Reference Notes
absolute magnitude H 16.21   n/a E2021B55  

187567 (2006 VE94)          Discovered 2006-Nov-15 by CSS at Catalina
Reference: 20080520/Numbers.arcLast Updated: 2008-05-22

[ show close-approach data ]
Alternate Designations
 2006 VE94 = 2005 NL27 
Ephemeris | Orbit Diagram | Orbital Elements | Mission Design | Physical Parameters | Discovery Circumstances | Close-Approach Data ]
ABOUT SSD CREDITS/AWARDS PRIVACY/COPYRIGHT GLOSSARY LINKS
FirstGov 2021-Apr-22 00:30 UT
(server date/time)  
NASA Home Page
Site Manager:   Ryan S. Park
Webmaster  Alan B. Chamberlin